Regional Weather Roundup
Issued by NWS Sterling, VA

Home | Current Version | Previous Version | Graphics & Text | Print | Product List | Glossary On
Versions: 1 2 3 4 5 6 7 8 9 10 11 12 13 14 15 16 17 18 19 20 21 22 23 24 25 26 27
000
ASUS41 KLWX 010410
RWRLWX

REGIONAL WEATHER ROUNDUP
NATIONAL WEATHER SERVICE BALTIMORE MD/WASHINGTON DC
1200 AM EDT SUN MAY 01 2016

Note: "FAIR" indicates few or no clouds below 12,000 feet
with no significant weather and/or obstructions to visibility.
 TC=TEMPERATURE CELSIUS

 * =Non NWS site. Station does not report precipitation (e.g. rain,
    snow, etc.), thunder, or fog.

DCZ001-MDZ009-015-VAZ040>042-051-053>054-010500-
WASHINGTON METRO

CITY           SKY/WX    TMP DP  RH WIND       PRES   REMARKS
WASHINGTON NAT LGT RAIN  54  51  90 SE5       30.19F
DULLES         CLOUDY    52  50  93 S3        30.19S
ANDREWS AFB    CLOUDY    52  50  91 SE5       30.18F
FT BELVOIR     MOCLDY    54  50  87 CALM      30.19F
QUANTICO       LGT RAIN  55  50  83 S9        30.19F
COLLEGE PARK*  CLOUDY    52  50  93 CALM      30.19S
LEESBURG*      LGT RAIN  54  54 100 SE5       30.19S
MANASSAS*      CLOUDY    54  54 100 SE3       30.19S
GAITHERSBURG*  CLOUDY    52  46  82 SE6       30.22S

$$

MDZ006>007-011-014-010500-
BALTIMORE METRO

CITY           SKY/WX    TMP DP  RH WIND       PRES   REMARKS
BWI AIRPORT    LGT RAIN  53  49  86 E10       30.20S
MD SCIENCE CTR   N/A     54  47  77 MISG      30.21S
MARTIN STATE   DRIZZLE   52  46  82 SE10      30.23S
ANNAPOLIS      CLOUDY    54  46  74 MISG      30.20F
FORT MEADE*    CLOUDY    52  50  93 SE5       30.22S

$$

MDZ012-015-019>023-010500-
MARYLAND EASTERN SHORE

CITY           SKY/WX    TMP DP  RH WIND       PRES   REMARKS
OCEAN CITY     CLOUDY    51  45  79 E5        30.23S
SALISBURY      LGT RAIN  50  46  86 E3        30.21F
CAMBRIDGE*     CLOUDY    48  43  81 SE3       30.20F
EASTON*        CLOUDY   N/A N/A N/A SE3       30.24F

$$

MDZ017>025-010500-
SOUTHERN MARYLAND

CITY           SKY/WX    TMP DP  RH WIND       PRES   REMARKS
PATUXENT RIVER CLOUDY    53  46  77 SE9       30.20F
ST INIGOES       N/A    N/A N/A N/A MISG        N/A
LEONARDTOWN*   CLOUDY    52  45  76 SE7       30.21F

$$

MDZ003>005-010500-
NORTH CENTRAL MARYLAND

CITY           SKY/WX    TMP DP  RH WIND       PRES   REMARKS
FREDERICK*     CLOUDY    50  50 100 CALM      30.20F FOG
HAGERSTOWN APT LGT RAIN  52  48  86 SE10      30.15F
WESTMINSTER*   LGT RAIN  52  48  87 SE7       30.18S

$$

MDZ501>502-010500-
WESTERN MARYLAND

CITY           SKY/WX    TMP DP  RH WIND       PRES   REMARKS
OAKLAND*       FOG       45  45 100 SE16G23   30.04F VSB 1/4
CUMBERLAND*    CLOUDY    52  52 100 SE3       30.13F

$$

VAZ025>031-010500-
SHENANDOAH VALLEY

CITY           SKY/WX    TMP DP  RH WIND       PRES   REMARKS
WINCHESTER*    DRIZZLE   52  50  93 SE6       30.14F
FRONT ROYAL*   CLOUDY    52  52 100 CALM      30.13F
LURAY*         DRIZZLE   54  54 100 CALM      30.14S
NEW MARKET*    CLOUDY    53  53  99 CALM      30.13S
STAUNTON*      CLOUDY    55  55  98 S7        30.17R
WAYNESBORO*    CLOUDY    52  51  95 MISG      30.15R

$$

WVZ021-048>050-054>055-010500-
EASTERN WEST VIRGINIA PANHANDLE

CITY           SKY/WX    TMP DP  RH WIND       PRES   REMARKS
MARTINSBURG    LGT RAIN  51  49  92 SE5       30.15F
PETERSBURG*    LGT RAIN  56  55  97 CALM      30.10S

$$

VAZ036>039-050-010500-
CENTRAL FOOTHILLS

CITY           SKY/WX    TMP DP  RH WIND       PRES   REMARKS
CHARLOTTESVILL LGT RAIN  55  53  93 S5        30.16S FOG
CULPEPER*      LGT RAIN  54  52  95 CALM      30.19R
ORANGE*        LGT RAIN  54  54 100 CALM      30.18S
GORDONSVILLE*  CLOUDY    53  53  98 CALM      30.16S
WARRENTON*     DRIZZLE   53  48  82 CALM      30.18R

$$

VAZ055>057-010500-
NORTH AND CENTRAL PIEDMONT

CITY           SKY/WX    TMP DP  RH WIND       PRES   REMARKS
FREDERICKSBRG* LGT RAIN  53  53 100 SE5       30.17S
STAFFORD*      DRIZZLE   52  50  95 CALM      30.22R

$$

NCZ024-NYZ072-PAZ021-071-VAZ022-071-010500-
OTHER REGIONAL OBSERVATIONS

CITY           SKY/WX    TMP DP  RH WIND       PRES   REMARKS
NEW YORK CITY  CLOUDY    50  36  58 MISG      30.26S
PHILADELPHIA   LGT RAIN  52  35  52 SE5       30.23F
PITTSBURGH     LGT RAIN  55  52  89 SE8       29.97F
ROANOKE        RAIN      54  53  97 SE7       30.17F FOG
RICHMOND       CLOUDY    54  51  90 SE8       30.19F
RALEIGH        CLOUDY    61  55  81 SE9       30.14F

$$

ANZ530>537-010500-
MARINE OBSERVATIONS

STATION/POSITION TIME  TEMP    WIND        PRES
                       AIR SEA DIR/SP/G
                 (UTC) (F)     (DEG/KT/KT) (MB)
THOMAS PT LIGHT  0400   53 57  130/ 15/ 16 1023.7F
BALT KEY BRIDGE  0300   54     120/ 14/ 16 1022.7S
COVE POINT       0300   53     170/ 13/ 15 1023.9R
LEWISETTA        0300      60                N/A
SOLOMONS ISLAND  0300      59                N/A
PINEY POINT      0300          150/ 13/ 15   N/A

$$





USA.gov is the U.S. government's official web portal to all federal, state and local government web resources and services.